Blackpool, United Kingdom

12:46 PM GMT on November 18, 2017 (GMT +0000)
Blackpool

Weather History for EGNH - December, 2013

Change the Weather History Date:

Saturday, December 28, 2013

  Actual Average Record
Temperature  
Mean Temperature 44 °F -  
Max Temperature 46 °F 43 °F 54 °F (2015)
Min Temperature 41 °F 36 °F 26 °F (2005)
Degree Days  
Heating Degree Days 22    
Moisture  
Dew Point 39 °F    
Average Humidity 78    
Maximum Humidity 93    
Minimum Humidity 66    
Precipitation  
Precipitation 0.00 in - - ()
Sea Level Pressure  
Sea Level Pressure 29.35 in    
Wind  
Wind Speed 20 mph ()    
Max Wind Speed 28 mph    
Max Gust Speed -    
Visibility 6.2 miles    
Events      
Averages and records for this station are not official NWS values.
T = Trace of Precipitation, MM = Missing Value Source: Averaged Metar Reports

Daily Weather History Graph

Daily Weather History Graph

Search for Another Location

Airport or City:

Trip Planner

Search our weather history database for the weather conditions in past years. The results will help you decide how hot, cold, wet, or windy it might be!

Date:

Astronomy

Dec. 28, 2013 Rise Set
Actual Time 8:29 AM GMT 3:57 PM GMT
Civil Twilight 7:46 AM GMT 4:41 PM GMT
Nautical Twilight 7:00 AM GMT 5:26 PM GMT
Astronomical Twilight 6:17 AM GMT 6:09 PM GMT
Moon 3:27 AM GMT (12/28) 12:59 PM GMT (12/28)
Length of Visible Light 8h 54m
Length of Day
7h 27m
Waning Crescent, 21% of the Moon is Illuminated
Dec 28
Waning Crescent
Jan 1
New
Jan 8
First Quarter
Jan 16
Full
Jan 24
Last Quarter

Hourly Weather History & Observations

Time (GMT) Temp. Windchill Dew Point Humidity Pressure Visibility Wind Dir Wind Speed Gust Speed Precip Events Conditions
12:00 AM 44 °F - 39 °F 78%  in - WSW 26.5 mph - -  
1:00 AM 43 °F - 39 °F 81%  in - WSW 27.6 mph - -  
2:00 AM 43 °F - 40 °F 84%  in - WSW 27.6 mph - -  
3:00 AM 43 °F - 40 °F 84%  in - WSW 25.3 mph - -  
4:00 AM 44 °F - 39 °F 76%  in - WSW 26.5 mph - -  
5:00 AM 44 °F - 40 °F 82%  in - WSW 25.3 mph - -  
6:00 AM 44 °F - 40 °F 81%  in - WSW 26.5 mph - -  
6:20 AM 44.6 °F 36.1 °F 41.0 °F 87% 29.15 in 6.2 mi SW 21.9 mph - N/A   Scattered Clouds
6:50 AM 42.8 °F 34.0 °F 41.0 °F 93% 29.15 in 6.2 mi SW 20.7 mph - N/A   Mostly Cloudy
7:00 AM 44 °F - 41 °F 83%  in - WSW 23.0 mph - -  
7:20 AM 44.6 °F 36.6 °F 41.0 °F 87% 29.18 in 6.2 mi West 19.6 mph - N/A   Scattered Clouds
7:50 AM 44.6 °F 36.9 °F 39.2 °F 81% 29.21 in 6.2 mi West 18.4 mph - N/A   Scattered Clouds
8:00 AM 44 °F - 40 °F 79%  in - West 19.6 mph - -  
8:20 AM 44.6 °F 37.4 °F 39.2 °F 81% 29.21 in 6.2 mi West 16.1 mph - N/A   Scattered Clouds
8:50 AM 44.6 °F 37.8 °F 41.0 °F 87% 29.24 in 6.2 mi West 15.0 mph - N/A   Scattered Clouds
9:00 AM 44 °F - 40 °F 79%  in - West 16.1 mph - -  
9:20 AM 44.6 °F 37.2 °F 39.2 °F 81% 29.24 in 6.2 mi WSW 17.3 mph - N/A   Partly Cloudy
9:50 AM 44.6 °F 37.4 °F 39.2 °F 81% 29.27 in 6.2 mi WSW 16.1 mph - N/A   Partly Cloudy
10:00 AM 44 °F - 39 °F 76%  in - West 18.4 mph - -  
10:20 AM 44.6 °F 37.8 °F 41.0 °F 87% 29.30 in 6.2 mi WSW 15.0 mph - N/A   Partly Cloudy
10:50 AM 44.6 °F 37.2 °F 39.2 °F 81% 29.30 in 6.2 mi WSW 17.3 mph - N/A   Partly Cloudy
11:00 AM 44 °F - 39 °F 76%  in - West 19.6 mph - -  
11:20 AM 44.6 °F 36.9 °F 39.2 °F 81% 29.30 in 6.2 mi WSW 18.4 mph - N/A   Scattered Clouds
11:50 AM 46.4 °F 39.0 °F 41.0 °F 81% 29.33 in 6.2 mi WSW 19.6 mph - N/A   Scattered Clouds
12:00 PM 44 °F - 39 °F 75%  in - West 23.0 mph - -  
12:20 PM 44.6 °F 36.9 °F 39.2 °F 81% 29.33 in 6.2 mi WSW 18.4 mph - N/A   Scattered Clouds
12:50 PM 44.6 °F 36.6 °F 39.2 °F 81% 29.33 in 6.2 mi WSW 19.6 mph - N/A   Scattered Clouds
1:00 PM 45 °F - 39 °F 72%  in - West 20.7 mph - -  
1:20 PM 44.6 °F 36.6 °F 39.2 °F 81% 29.36 in 6.2 mi WSW 19.6 mph - N/A   Scattered Clouds
1:50 PM 44.6 °F 36.9 °F 39.2 °F 81% 29.36 in 6.2 mi WSW 18.4 mph - N/A   Partly Cloudy
2:00 PM 44 °F - 38 °F 74%  in - West 20.7 mph - -  
2:20 PM 44.6 °F 36.9 °F 39.2 °F 81% 29.36 in 6.2 mi WSW 18.4 mph - N/A   Scattered Clouds
2:50 PM 44.6 °F 37.2 °F 39.2 °F 81% 29.39 in 6.2 mi WSW 17.3 mph - N/A   Scattered Clouds
3:00 PM 44 °F - 39 °F 76%  in - West 19.6 mph - -  
3:20 PM 44.6 °F 36.9 °F 39.2 °F 81% 29.39 in 6.2 mi WSW 18.4 mph - N/A   Scattered Clouds
3:50 PM 44.6 °F 36.9 °F 39.2 °F 81% 29.39 in 6.2 mi WSW 18.4 mph - N/A   Scattered Clouds
4:00 PM 44 °F - 38 °F 72%  in - West 20.7 mph - -  
4:20 PM 44.6 °F 36.9 °F 39.2 °F 81% 29.42 in 6.2 mi WSW 18.4 mph - N/A   Scattered Clouds
4:50 PM 44.6 °F 36.6 °F 39.2 °F 81% 29.42 in 6.2 mi WSW 19.6 mph - N/A   Scattered Clouds
5:00 PM 44 °F - 40 °F 79%  in - West 21.9 mph - -  
5:20 PM 44.6 °F 36.6 °F 39.2 °F 81% 29.44 in 6.2 mi WSW 19.6 mph - N/A   Partly Cloudy
5:50 PM 44.6 °F 36.6 °F 39.2 °F 81% 29.44 in 6.2 mi West 19.6 mph - N/A   Scattered Clouds
6:00 PM 45 °F - 39 °F 72%  in - West 21.9 mph - -  
6:20 PM 46.4 °F 39.0 °F 39.2 °F 76% 29.47 in 6.2 mi West 19.6 mph - N/A   Partly Cloudy
6:50 PM 46.4 °F 39.0 °F 37.4 °F 71% 29.47 in 6.2 mi West 19.6 mph - N/A   Scattered Clouds
7:00 PM 45 °F - 37 °F 66%  in - West 20.7 mph - -  
7:20 PM 46.4 °F 39.2 °F 37.4 °F 71% 29.47 in 6.2 mi West 18.4 mph - N/A   Partly Cloudy
7:50 PM 46.4 °F 39.2 °F 37.4 °F 71% 29.50 in 6.2 mi West 18.4 mph - N/A   Scattered Clouds
8:00 PM 45 °F - 38 °F 67%  in - West 21.9 mph - -  
8:20 PM 46.4 °F 38.5 °F 37.4 °F 71% 29.50 in 6.2 mi WSW 21.9 mph - N/A   Partly Cloudy
8:50 PM 46.4 °F 39.0 °F 39.2 °F 76% 29.53 in 6.2 mi West 19.6 mph - N/A   Partly Cloudy
9:00 PM 44 °F - 37 °F 70%  in - West 21.9 mph - -  
10:00 PM 45 °F - 38 °F 68%  in - West 20.7 mph - -  
11:00 PM 44 °F - 37 °F 68%  in - West 19.6 mph - -